Temperature
11 11 10 11 12 12 13 12 12 13 13 13 12 12 13 13 13 13 12 12 11 11 10 10 10 10 9 9 9 9 9 9 9 9 9 9 9 9 9 9 9 10 9 10
11 10 11 12 12 12 12 12 12 13 13 12 12 12 12 13 12 13 12 12 11 11 10 10 9 9 9 9 9 9 9 9 9 9 9 9 9 9 9 9 9 9 9 9
11 11 12 12 12 12 12 12 12 12 12 12 11 11 12 13 13 12 12 11 11 11 10 10 9 9 9 8 8 8 9 9 9 8 8 8 8 8 8 8 9 9 9 9
11 12 12 11 12 12 11 12 12 11 10 10 11 9 11 12 12 12 12 11 11 11 10 10 9 8 8 8 8 8 8 8 8 8 8 8 8 8 8 8 8 8 8 9
11 11 11 11 11 12 11 12 11 11 10 9 10 9 10 12 11 11 11 11 11 10 10 9 9 8 8 8 8 8 8 8 8 8 8 8 8 8 8 8 8 8 8 8
10 11 11 11 11 11 11 11 11 10 9 8 10 10 10 11 11 11 11 11 10 10 9 9 9 8 8 8 8 8 8 8 8 8 8 8 7 7 7 7 8 8 8 8
10 10 10 10 10 10 10 9 8 8 8 8 11 10 10 12 12 11 11 10 10 9 9 9 8 8 8 7 7 7 7 7 7 7 7 7 7 7 7 7 7 7 7 7
9 8 10 10 10 9 9 9 8 8 9 9 10 9 10 11 11 11 11 10 9 9 9 8 8 8 8 7 7 7 7 7 7 7 7 7 7 7 7 6 7 7 7 7
8 8 9 10 10 10 9 9 10 9 8 8 9 11 11 11 10 10 10 9 9 8 8 8 7 7 7 7 7 7 7 7 7 6 6 6 6 6 6 6 6 6 6 6
8 7 8 9 9 9 9 9 8 8 8 8 10 10 9 9 9 9 9 8 8 8 8 7 7 7 7 6 6 6 6 6 6 6 6 6 6 6 6 6 6 6 6 6
8 6 7 7 7 8 8 8 8 8 8 8 9 9 11 9 9 9 8 9 8 7 7 7 6 6 6 6 6 6 6 6 6 6 6 5 6 5 5 6 6 6 5 5
7 6 5 7 8 8 8 8 8 7 7 8 8 8 10 10 9 9 9 8 8 7 7 6 6 5 5 5 5 5 5 5 5 5 5 5 5 5 5 5 5 5 5 5
6 6 5 6 6 6 7 8 8 8 7 7 7 8 9 9 9 9 8 8 7 7 6 6 5 5 5 5 5 5 5 5 5 5 5 5 5 4 4 5 5 4 5 5
6 5 5 6 6 5 5 6 7 6 5 6 7 7 8 8 8 8 8 7 7 6 6 5 5 5 4 4 4 4 4 4 4 4 4 4 4 4 4 4 4 4 4 4
5 4 5 6 6 6 6 6 6 6 6 6 7 7 7 7 7 7 7 7 6 6 6 5 5 4 4 4 4 4 4 4 4 4 4 4 4 4 3 4 4 4 4 4
4 4 4 5 6 6 5 5 6 6 6 6 6 6 7 8 8 7 7 6 6 6 5 5 4 4 4 4 4 4 4 4 4 3 3 3 3 3 3 3 3 3 3 3
3 3 3 4 5 5 4 5 5 5 5 6 5 6 6 6 6 6 6 6 6 5 5 4 4 4 4 3 3 3 3 3 3 3 3 3 3 3 3 3 3 3 3 3
3 3 3 3 4 3 5 5 5 5 5 5 5 5 5 5 5 6 5 5 5 4 4 4 3 3 3 3 3 3 3 3 2 2 2 2 2 2 2 2 2 2 2 2
3 3 3 3 3 4 5 4 4 4 4 4 4 4 4 5 5 5 5 4 4 4 4 3 3 3 3 3 3 2 2 2 2 2 2 2 2 2 2 2 2 2 2 2
3 3 2 2 3 3 4 4 5 5 3 4 4 3 4 3 2 3 4 4 3 3 3 3 2 2 2 2 2 2 2 2 1 2 2 2 2 1 1 1 1 1 1 1
1 1 2 2 2 3 3 3 4 3 2 3 3 3 3 2 2 3 3 3 3 3 2 2 2 2 2 2 1 1 1 1 1 1 1 1 1 1 1 1 1 0 0 0
1 1 1 2 2 1 2 2 2 2 3 3 3 3 2 2 2 2 2 2 2 2 2 1 1 1 1 1 1 1 1 1 1 0 0 0 0 0 0 0 0 -0 -0 -0
1 1 1 1 1 2 2 2 2 3 2 2 2 2 2 2 1 1 1 1 1 1 1 1 1 1 1 0 0 0 0 0 0 0 -0 -0 -0 -0 -0 -0 -1 -1 -1 -1
1 1 1 0 1 2 2 2 2 2 2 2 1 1 1 1 1 1 1 1 1 0 0 0 0 0 0 0 0 -0 -0 -0 -0 -0 -0 -0 -1 -1 -1 -1 -1 -1 -1 -1
0 0 0 -0 1 1 1 1 1 1 1 1 1 1 0 0 0 0 0 -0 -0 -0 -0 -0 -0 -1 -0 -0 -0 -1 -1 -1 -1 -1 -1 -1 -1 -1 -1 -1 -1 -2 -2 -2
-1 -1 -1 -1 0 -0 -0 0 0 0 0 0 0 -0 -0 -0 -0 -0 -1 -1 -1 -1 -1 -1 -1 -1 -1 -1 -1 -1 -1 -1 -1 -1 -1 -2 -2 -2 -2 -2 -2 -2 -2 -2
Wind_Speed
7 6 7 8 9 8 7 7 9 7 2 4 8 10 7 5 5 5 4 3 2 2 2 2 2 4 4 3 3 3 3 3 2 2 2 2 1 1 1 2 3 4 3 3
6 10 10 8 7 8 10 10 10 6 1 4 8 10 8 6 6 4 4 3 3 3 2 2 2 4 4 3 3 3 3 3 3 2 2 2 2 1 1 2 3 3 3 3
10 5 5 9 9 10 11 10 8 6 5 6 7 8 7 6 4 5 4 4 3 3 3 3 3 3 3 3 3 3 3 3 3 2 2 2 2 2 1 1 2 2 4 3
8 8 7 8 10 9 9 5 5 5 5 4 4 5 5 6 5 5 5 4 3 3 3 3 4 3 3 3 3 3 3 3 3 3 3 3 3 2 1 2 2 2 3 3
5 5 7 9 7 7 5 3 5 6 6 6 6 5 6 5 5 5 5 5 4 3 3 4 4 4 3 3 3 3 3 3 3 3 3 3 2 1 1 2 2 2 2 3
8 4 4 5 4 4 3 3 5 4 3 6 8 7 5 4 6 5 5 5 4 4 3 4 4 4 3 3 3 4 3 3 3 3 3 4 3 2 2 2 3 2 2 2
7 8 6 4 4 4 4 3 1 2 4 7 4 5 5 3 4 5 5 5 4 4 3 3 4 3 3 4 4 4 4 3 3 3 3 3 4 3 2 2 3 2 2 2
4 6 8 6 6 5 7 6 5 4 5 3 2 6 3 5 5 6 6 6 4 3 3 3 3 3 3 3 4 4 4 3 3 3 3 3 3 3 2 2 2 2 2 2
4 3 2 4 4 5 5 6 4 2 3 3 5 4 2 5 6 6 5 5 3 3 3 3 2 2 2 3 3 4 4 3 3 3 2 2 2 2 2 2 2 2 2 2
3 4 3 2 3 6 4 3 3 4 4 4 6 5 4 6 5 5 4 4 3 2 2 2 2 2 2 2 3 3 4 4 3 3 3 2 2 2 2 2 2 2 2 2
3 3 2 3 7 7 5 5 5 4 4 3 3 3 1 7 7 5 4 4 4 3 2 2 2 2 2 3 3 3 3 3 3 3 2 2 2 2 2 2 2 2 2 2
2 2 4 5 3 3 5 6 5 4 5 4 3 3 2 6 6 5 4 4 4 3 3 3 2 2 2 3 3 3 3 3 3 3 2 2 2 3 2 2 2 2 2 2
2 2 2 2 2 3 4 5 5 3 2 4 4 4 1 4 5 5 5 3 3 3 3 3 2 2 2 2 2 2 3 3 3 3 3 3 3 3 2 2 2 2 2 2
4 4 6 6 4 2 5 6 6 4 4 6 6 5 3 1 2 2 2 2 2 3 2 2 2 1 1 1 1 1 2 3 3 3 3 3 3 3 2 2 2 1 2 2
3 5 7 9 8 6 7 8 9 10 9 7 6 5 5 3 1 1 1 1 1 1 2 2 1 1 1 1 1 1 2 2 3 3 3 3 3 3 2 2 2 1 1 1
3 5 5 8 8 7 9 9 10 11 10 10 9 9 4 2 1 1 0 0 1 1 1 1 1 1 1 1 1 1 1 1 2 3 3 3 3 2 2 2 1 1 1 1
4 4 3 5 4 4 7 7 8 6 5 6 9 6 1 1 1 1 1 0 0 0 0 0 0 0 1 1 1 1 1 1 2 2 2 2 2 2 2 1 1 1 1 1
6 5 4 3 2 6 4 1 2 4 3 2 0 1 2 1 2 1 1 1 1 1 0 0 0 0 0 1 1 2 2 1 2 2 2 2 2 2 1 1 1 1 1 1
7 6 4 3 4 6 2 1 1 2 3 1 1 2 3 3 2 2 3 3 1 1 1 1 1 1 1 1 2 2 2 1 1 2 2 2 2 2 1 2 2 1 1 1
3 4 4 3 3 4 1 3 4 1 1 3 2 2 2 2 1 2 4 4 3 3 2 2 2 2 2 2 2 2 1 1 1 1 1 1 1 1 2 2 2 1 2 2
2 3 5 5 5 3 2 3 3 2 2 4 2 1 1 0 1 2 2 3 3 3 3 2 2 2 1 2 1 1 1 1 1 1 1 0 0 1 1 1 1 1 2 1
2 2 3 3 4 4 3 2 1 1 3 3 3 2 2 2 3 3 3 3 3 3 3 3 2 2 2 2 1 0 0 0 1 1 0 1 1 1 1 1 1 1 2 2
1 1 1 2 2 2 1 2 2 3 3 3 3 3 3 2 3 3 3 3 3 3 3 2 2 2 2 1 1 0 1 1 1 0 0 1 1 1 1 1 2 2 2 2
3 2 2 3 3 3 2 3 4 4 3 3 3 3 3 2 3 3 3 3 3 3 3 2 2 1 1 1 1 1 0 0 0 1 1 1 1 1 1 1 1 2 2 3
5 4 3 4 3 3 4 4 4 3 3 3 4 3 3 2 3 2 2 2 2 2 2 2 1 1 1 1 1 1 1 1 1 1 1 1 1 2 2 2 2 3 3 4
2 3 3 4 4 4 5 5 4 4 3 3 3 3 3 2 2 2 2 2 2 2 2 2 2 2 2 2 2 2 1 1 1 1 1 1 2 2 2 2 3 3 4 5
Wind_Direction
192 217 221 221 220 241 261 264 269 269 237 238 247 255 256 240 227 228 204 189 197 205 191 153 146 138 125 124 137 142 138 139 132 138 143 141 158 174 159 150 145 139 143 153
215 227 231 237 241 246 254 255 261 272 259 265 264 264 252 235 220 211 190 190 200 198 187 154 137 128 138 146 149 142 146 144 139 158 164 160 150 156 163 150 141 141 148 150
228 228 217 226 235 242 248 246 256 275 296 261 271 272 234 214 201 182 176 183 199 198 178 159 142 135 141 141 143 151 148 144 141 146 135 126 96 86 105 128 161 153 149 148
240 235 238 236 238 243 252 255 263 269 276 260 227 278 237 205 195 187 178 175 183 189 166 153 152 157 156 145 141 153 148 144 141 141 143 145 141 150 175 158 154 152 142 144
239 216 227 236 239 241 249 285 267 255 256 268 236 243 264 186 196 195 176 166 170 165 156 154 155 160 147 140 150 156 146 143 141 143 145 139 121 118 111 119 123 134 136 137
248 251 245 250 254 245 247 263 265 251 244 257 227 213 262 197 191 175 165 161 162 156 147 140 135 136 138 144 153 154 148 144 141 145 143 139 132 120 113 128 143 142 140 139
236 228 218 225 220 209 214 194 233 241 225 243 207 208 244 176 145 150 146 141 137 140 132 127 128 137 147 150 149 152 150 151 150 154 153 153 142 137 140 143 152 154 152 148
237 236 198 199 213 198 209 204 190 215 230 250 218 222 228 117 103 111 115 112 107 105 111 118 127 138 145 146 148 147 146 144 143 152 152 151 143 142 145 140 142 149 155 157
241 248 158 193 219 214 199 219 232 253 282 266 239 212 169 112 112 115 115 110 114 106 106 120 122 130 138 145 149 148 148 142 142 142 132 128 134 133 134 137 132 132 137 133
276 262 246 214 215 226 234 219 179 201 219 242 240 222 201 161 160 145 129 123 116 106 106 108 123 130 135 140 135 140 145 152 149 147 143 135 132 133 130 126 131 128 122 127
280 237 240 211 208 196 196 215 214 218 231 218 242 251 112 150 149 142 131 126 121 117 126 116 103 109 122 123 122 126 130 131 135 133 126 124 131 126 126 128 130 128 124 139
261 243 247 239 241 267 221 215 199 199 233 228 243 264 27 104 113 116 113 112 116 110 104 101 98 102 107 119 130 135 135 135 141 140 135 133 126 117 116 117 121 124 137 145
279 232 263 248 218 220 230 228 233 245 254 229 224 242 28 83 84 87 94 96 107 112 104 98 94 102 109 110 123 138 138 138 137 136 135 131 130 126 127 121 120 133 150 147
285 251 233 239 265 223 246 241 231 216 218 238 232 241 267 301 62 77 90 104 109 118 119 114 115 114 106 105 106 131 138 138 139 138 142 145 142 139 140 138 138 140 148 155
268 255 263 273 275 269 258 240 226 227 229 230 246 252 260 257 222 133 115 108 141 127 111 115 130 133 108 89 74 71 112 126 142 144 145 147 139 132 132 132 131 129 146 165
263 264 280 276 265 260 265 252 238 235 239 245 264 278 281 288 68 86 111 189 175 159 121 142 134 121 123 119 105 72 83 110 135 140 142 137 135 133 131 134 131 136 157 171
234 245 255 263 263 290 262 241 224 222 227 222 242 256 307 351 322 234 255 26 91 148 178 195 161 148 127 138 133 137 117 111 116 127 130 133 133 136 146 151 150 165 176 168
239 246 250 259 248 239 239 64 169 203 239 210 236 346 18 343 311 302 51 65 355 349 332 185 112 84 79 103 116 116 112 115 127 128 129 132 137 147 158 167 188 202 189 185
231 228 235 230 242 261 261 24 34 197 266 355 277 343 4 13 6 9 33 38 18 356 12 44 64 54 78 92 103 107 106 115 124 133 140 146 143 154 185 207 215 212 201 210
244 233 230 226 236 245 316 357 334 105 271 11 357 323 327 22 314 305 357 14 23 27 43 52 39 39 60 62 95 119 141 147 161 153 134 123 136 180 225 234 230 217 200 211
207 224 228 234 237 260 341 342 21 127 274 343 355 352 46 73 258 303 346 7 24 37 45 52 49 37 55 63 86 133 153 173 148 116 114 141 197 221 230 249 253 210 200 207
220 211 224 230 228 254 351 44 91 320 11 19 23 39 58 47 23 24 18 18 28 33 32 39 45 30 33 54 74 134 199 102 81 91 150 211 237 250 245 230 254 229 203 211
261 266 270 230 233 319 40 30 19 37 25 15 20 29 46 34 13 14 13 16 18 17 17 23 38 32 28 45 73 250 240 111 120 181 250 250 252 240 222 218 226 225 214 222
302 318 303 296 304 343 9 20 28 27 14 4 8 19 24 16 3 2 5 8 11 10 5 9 22 21 1 12 35 336 324 87 118 266 286 274 255 266 263 247 228 227 228 232
296 301 288 281 303 345 0 357 357 355 360 9 6 5 7 6 347 346 349 353 8 11 3 6 0 336 321 338 350 351 357 21 319 280 277 274 260 252 266 269 253 245 240 236
306 294 278 278 311 316 319 343 352 351 350 352 354 355 356 350 332 339 338 346 1 6 1 357 349 346 344 349 338 340 355 352 295 288 286 282 272 267 262 274 297 290 272 275
Height
1485 1487 1485 1482 1480 1480 1479 1479 1479 1475 1473 1476 1477 1474 1472 1470 1471 1471 1472 1474 1475 1476 1476 1477 1478 1478 1479 1479 1480 1481 1482 1483 1484 1484 1485 1486 1488 1489 1490 1493 1495 1497 1498 1500
1482 1482 1478 1477 1478 1478 1478 1479 1478 1473 1473 1475 1474 1471 1467 1466 1467 1467 1468 1470 1472 1473 1473 1474 1475 1475 1476 1477 1477 1478 1479 1480 1481 1482 1484 1485 1486 1487 1488 1490 1492 1494 1496 1497
1477 1474 1474 1475 1476 1476 1475 1476 1476 1476 1474 1472 1473 1470 1464 1461 1462 1463 1465 1467 1468 1470 1471 1472 1472 1473 1473 1474 1475 1476 1477 1479 1480 1481 1481 1482 1483 1484 1486 1488 1490 1492 1493 1495
1473 1471 1472 1473 1473 1473 1474 1470 1472 1474 1479 1479 1473 1480 1462 1459 1460 1460 1462 1464 1466 1468 1469 1469 1470 1471 1471 1472 1473 1474 1476 1477 1478 1478 1479 1480 1480 1482 1484 1485 1487 1489 1491 1493
1469 1468 1470 1471 1470 1471 1471 1470 1471 1473 1476 1479 1472 1477 1464 1456 1458 1458 1459 1461 1463 1465 1466 1467 1468 1469 1470 1470 1471 1473 1474 1475 1476 1476 1478 1478 1479 1480 1482 1483 1485 1487 1488 1490
1467 1466 1467 1467 1467 1469 1470 1471 1470 1471 1477 1483 1469 1471 1463 1456 1453 1454 1456 1458 1461 1463 1464 1465 1467 1467 1468 1469 1470 1470 1471 1472 1474 1475 1476 1477 1477 1479 1480 1480 1482 1484 1486 1488
1466 1464 1464 1466 1468 1469 1470 1476 1483 1483 1483 1476 1458 1463 1459 1448 1447 1450 1453 1456 1458 1460 1462 1463 1464 1465 1466 1467 1467 1468 1469 1470 1472 1473 1474 1475 1476 1477 1478 1479 1481 1482 1484 1485
1468 1466 1461 1462 1464 1467 1468 1470 1479 1482 1475 1467 1458 1462 1453 1445 1446 1449 1452 1455 1457 1459 1460 1461 1462 1463 1464 1465 1465 1466 1467 1468 1470 1471 1472 1474 1474 1475 1476 1478 1479 1480 1481 1483
1467 1464 1459 1459 1460 1462 1465 1467 1464 1471 1470 1471 1462 1451 1449 1446 1448 1450 1452 1455 1456 1458 1459 1460 1461 1461 1462 1463 1463 1464 1465 1466 1468 1469 1470 1472 1473 1474 1475 1476 1477 1478 1479 1481
1463 1467 1461 1460 1460 1461 1461 1461 1468 1472 1472 1468 1455 1451 1453 1450 1450 1450 1452 1454 1456 1457 1458 1459 1460 1460 1460 1461 1461 1462 1463 1464 1466 1467 1468 1470 1471 1472 1473 1474 1475 1476 1477 1478
1464 1468 1464 1461 1460 1459 1462 1463 1462 1464 1463 1465 1462 1456 1441 1443 1446 1449 1451 1453 1455 1456 1457 1458 1459 1459 1459 1460 1460 1461 1461 1463 1464 1465 1466 1467 1468 1470 1471 1472 1473 1474 1475 1476
1464 1466 1466 1459 1455 1455 1455 1456 1460 1467 1464 1460 1462 1459 1441 1441 1444 1447 1450 1452 1454 1455 1456 1457 1458 1458 1458 1458 1459 1459 1460 1461 1462 1463 1464 1465 1466 1467 1469 1470 1471 1472 1473 1473
1465 1466 1467 1460 1461 1458 1457 1455 1456 1458 1461 1461 1462 1458 1443 1443 1445 1448 1450 1452 1454 1455 1455 1456 1456 1457 1457 1457 1457 1458 1458 1459 1460 1461 1462 1462 1464 1465 1466 1467 1469 1470 1470 1471
1464 1463 1463 1460 1454 1456 1457 1455 1456 1460 1465 1460 1454 1452 1448 1447 1448 1449 1450 1452 1453 1454 1454 1455 1455 1455 1455 1455 1455 1456 1456 1457 1457 1459 1459 1460 1462 1463 1464 1465 1466 1467 1468 1468
1463 1463 1457 1453 1450 1451 1451 1452 1453 1456 1454 1456 1449 1448 1447 1446 1447 1448 1450 1451 1452 1452 1453 1453 1453 1453 1453 1453 1454 1454 1454 1455 1455 1456 1457 1458 1460 1461 1462 1463 1463 1464 1465 1466
1462 1461 1457 1453 1448 1449 1449 1448 1448 1449 1449 1449 1447 1447 1444 1444 1445 1447 1448 1449 1450 1450 1451 1452 1452 1452 1452 1452 1452 1452 1452 1453 1454 1454 1455 1456 1457 1458 1459 1460 1461 1461 1462 1463
1461 1460 1459 1454 1448 1448 1450 1445 1444 1445 1444 1444 1447 1445 1443 1444 1445 1446 1447 1447 1448 1448 1449 1449 1450 1450 1450 1450 1450 1450 1451 1451 1452 1452 1453 1454 1455 1456 1456 1457 1458 1458 1459 1460
1458 1458 1458 1454 1452 1455 1443 1437 1438 1441 1441 1441 1441 1441 1442 1443 1444 1445 1445 1446 1446 1447 1447 1447 1447 1448 1448 1448 1448 1449 1449 1449 1450 1450 1451 1452 1453 1453 1454 1454 1455 1455 1456 1456
1453 1455 1456 1454 1451 1444 1439 1439 1439 1441 1442 1441 1442 1442 1443 1443 1443 1443 1444 1445 1445 1445 1445 1445 1445 1446 1446 1446 1446 1446 1447 1447 1448 1448 1449 1449 1450 1451 1451 1451 1452 1452 1453 1453
1450 1451 1454 1452 1451 1449 1442 1440 1437 1439 1444 1442 1442 1442 1443 1443 1445 1444 1443 1443 1443 1443 1443 1443 1443 1444 1444 1444 1444 1444 1444 1445 1445 1446 1446 1447 1447 1448 1448 1448 1449 1449 1450 1450
1453 1452 1452 1450 1450 1446 1443 1440 1438 1446 1447 1443 1442 1442 1442 1443 1444 1444 1442 1442 1442 1442 1442 1441 1441 1441 1442 1442 1442 1442 1443 1443 1444 1444 1444 1445 1445 1445 1445 1445 1446 1446 1446 1447
1450 1451 1450 1448 1450 1452 1444 1442 1444 1445 1443 1442 1442 1442 1442 1442 1442 1442 1442 1441 1441 1440 1440 1440 1440 1440 1440 1440 1440 1440 1441 1441 1441 1442 1442 1442 1442 1442 1442 1442 1443 1443 1443 1444
1450 1449 1449 1449 1450 1446 1444 1443 1443 1443 1443 1443 1443 1442 1442 1442 1442 1441 1441 1441 1440 1440 1439 1439 1438 1438 1438 1438 1439 1438 1439 1439 1439 1439 1439 1439 1439 1439 1440 1440 1440 1440 1440 1441
1448 1447 1448 1448 1446 1445 1444 1443 1443 1443 1443 1443 1443 1442 1442 1441 1441 1440 1440 1440 1439 1439 1438 1437 1437 1436 1436 1436 1437 1436 1436 1436 1436 1436 1436 1436 1436 1436 1437 1437 1437 1437 1437 1437
1450 1449 1448 1447 1445 1444 1443 1444 1444 1443 1443 1442 1442 1441 1441 1440 1440 1440 1439 1439 1438 1437 1437 1436 1435 1435 1435 1435 1434 1434 1434 1434 1434 1434 1434 1434 1434 1433 1433 1434 1434 1434 1434 1435
1450 1450 1449 1447 1445 1445 1444 1443 1443 1442 1441 1441 1440 1440 1440 1439 1439 1438 1438 1437 1437 1436 1435 1434 1434 1433 1433 1433 1433 1432 1432 1432 1432 1431 1431 1431 1431 1431 1430 1430 1430 1431 1431 1431